This is the latest recevied weather packets stored in our database for station/object F5LKO-13. If no packets are shown the sender has not sent any weather packets the latest 10 day(s).
| Time | Temp. | Humidity | Pressure | Rain* | Wind** | Luminosity | Snow |
|---|---|---|---|---|---|---|---|
| 1778164711 | 21.67° C | 99% | 1012 hPa | 0 mm | - | 29 W/m² | - |
| 1778164405 | 22.22° C | 99% | 1012.1 hPa | 0 mm | - | 34 W/m² | - |
| 1778164099 | 22.22° C | 99% | 1012.2 hPa | 0 mm | - | 38 W/m² | - |
| 1778163793 | 21.67° C | 99% | 1012.3 hPa | 0 mm | - | 40 W/m² | - |
| 1778163487 | 22.22° C | 99% | 1012.3 hPa | 0 mm | - | 42 W/m² | - |
| 1778163189 | 22.22° C | 99% | 1012.3 hPa | 0 mm | - | 45 W/m² | - |
| 1778162875 | 21.67° C | 99% | 1012.4 hPa | 0 mm | - | 46 W/m² | - |
| 1778162875 | 21.67° C | 99% | 1012.4 hPa | 0 mm | - | 46 W/m² | - |
| 1778162569 | 21.67° C | 99% | 1012.4 hPa | 0 mm | - | 48 W/m² | - |
| 1778162262 | 22.78° C | 99% | 1012.4 hPa | 0 mm | - | 50 W/m² | - |
| 1778161956 | 22.78° C | 99% | 1012.5 hPa | 0 mm | - | 52 W/m² | - |
| 1778161650 | 21.67° C | 99% | 1012.6 hPa | 0 mm | - | 54 W/m² | - |
| 1778161352 | 21.67° C | 99% | 1012.7 hPa | 0 mm | - | 56 W/m² | - |
| 1778161037 | 22.78° C | 99% | 1012.8 hPa | 0 mm | - | 58 W/m² | - |
| 1778160732 | 22.22° C | 99% | 1012.9 hPa | 0 mm | - | 60 W/m² | - |
| 1778160426 | 22.22° C | 99% | 1013 hPa | 0 mm | - | 62 W/m² | - |
| 1778160120 | 22.78° C | 99% | 1013 hPa | 0 mm | - | 64 W/m² | - |
| 1778159814 | 22.22° C | 99% | 1013.1 hPa | 0 mm | - | 66 W/m² | - |
| 1778159516 | 22.22° C | 99% | 1013.2 hPa | 0 mm | - | 67 W/m² | - |
| 1778159201 | 22.22° C | 98% | 1013.2 hPa | 0 mm | - | 70 W/m² | - |
| 1778158895 | 21.67° C | 99% | 1013.3 hPa | 0 mm | - | 72 W/m² | - |
| 1778158589 | 21.67° C | 99% | 1013.4 hPa | 0 mm | - | 73 W/m² | - |
| 1778158283 | 21.67° C | 98% | 1013.4 hPa | 0 mm | - | 75 W/m² | - |
| 1778157977 | 21.67° C | 99% | 1013.5 hPa | 0 mm | - | 75 W/m² | - |
| 1778157680 | 21.11° C | 99% | 1013.5 hPa | 0 mm | - | 77 W/m² | - |
* Rain latest hour (hover to see other rain measurements)
** Current wind speed in m/s (hover to see current wind gust speed)